Weather History for KHHW - January, 2015

Change the Weather History Date:

Monday, January 26, 2015

  Actual Average Record
Temperature  
Mean Temperature 52 °F -  
Max Temperature 69 °F 55 °F 73 °F (2014)
Min Temperature 34 °F 32 °F 34 °F (2015)
Degree Days  
Heating Degree Days 14    
Growing Degree Days 2 (Base 50)    
Moisture  
Dew Point 34 °F    
Average Humidity 56    
Maximum Humidity 85    
Minimum Humidity 27    
Precipitation  
Precipitation 0.00 in - - ()
Sea Level Pressure  
Sea Level Pressure 30.11 in    
Wind  
Wind Speed 6 mph (West)    
Max Wind Speed 12 mph    
Max Gust Speed -    
Visibility 10 miles    
Events      
Averages and records for this station are not official NWS values.
T = Trace of Precipitation, MM = Missing Value Source: NWS Daily Summary

Daily Weather History Graph

Daily Weather History Graph

Search for Another Location

Airport or City:

Trip Planner

Search our weather history database for the weather conditions in past years. The results will help you decide how hot, cold, wet, or windy it might be!

Date:

Astronomy

Jan. 26, 2015 Rise Set
Actual Time 7:23 AM CST 5:46 PM CST
Civil Twilight 6:56 AM CST 6:13 PM CST
Nautical Twilight 6:26 AM CST 6:43 PM CST
Astronomical Twilight 5:56 AM CST 7:13 PM CST
Moon 11:27 AM CST (1/26) No Moon Set
Length of Visible Light 11h 16m
Length of Day
10h 23m
Waxing Crescent, 45% of the Moon is Illuminated
Jan 26
Waxing Crescent
Jan 26
First Quarter
Feb 3
Full
Feb 11
Last Quarter
Feb 18
New

Hourly Weather History & Observations

Time (CST) Temp. Windchill Dew Point Humidity Pressure Visibility Wind Dir Wind Speed Gust Speed Precip Events Conditions
12:15 AM 42.1 °F 37.7 °F 31.3 °F 66% 30.15 in 10.0 mi NW 6.9 mph - N/A   Clear
12:35 AM 41.2 °F 36.6 °F 31.1 °F 67% 30.15 in 10.0 mi WNW 6.9 mph - N/A   Clear
12:55 AM 39.4 °F 35.2 °F 31.3 °F 73% 30.15 in 10.0 mi NW 5.8 mph - N/A   Clear
1:15 AM 39.2 °F - 31.1 °F 73% 30.16 in 10.0 mi Calm Calm - N/A   Clear
1:35 AM 39.6 °F 37.4 °F 31.5 °F 73% 30.16 in 10.0 mi NW 3.5 mph - N/A   Clear
1:55 AM 38.7 °F 34.3 °F 30.9 °F 74% 30.16 in 10.0 mi NW 5.8 mph - N/A   Clear
2:15 AM 37.6 °F 33.1 °F 31.1 °F 77% 30.17 in 10.0 mi West 5.8 mph - N/A   Clear
2:35 AM 36.7 °F 31.2 °F 30.9 °F 80% 30.18 in 10.0 mi WNW 6.9 mph - N/A   Clear
2:55 AM 37.0 °F 31.6 °F 31.1 °F 79% 30.17 in 10.0 mi WNW 6.9 mph - N/A   Clear
3:15 AM 37.4 °F 32.8 °F 31.1 °F 78% 30.17 in 10.0 mi WNW 5.8 mph - N/A   Clear
3:35 AM 36.7 °F 32.0 °F 30.9 °F 80% 30.18 in 10.0 mi WNW 5.8 mph - N/A   Clear
3:55 AM 36.3 °F 30.8 °F 30.9 °F 81% 30.17 in 10.0 mi WNW 6.9 mph - N/A   Clear
4:15 AM 36.1 °F 31.4 °F 30.7 °F 81% 30.18 in 10.0 mi WNW 5.8 mph - N/A   Clear
4:35 AM 36.0 °F 31.1 °F 30.6 °F 81% 30.18 in 10.0 mi WNW 5.8 mph - N/A   Clear
4:55 AM 35.8 °F 30.9 °F 30.6 °F 81% 30.19 in 10.0 mi NW 5.8 mph - N/A   Clear
5:15 AM 36.3 °F 30.8 °F 30.7 °F 80% 30.18 in 10.0 mi NW 6.9 mph - N/A   Clear
5:35 AM 35.6 °F 30.7 °F 30.2 °F 81% 30.17 in 10.0 mi NW 5.8 mph - N/A   Clear
5:55 AM 35.2 °F 31.2 °F 30.2 °F 82% 30.18 in 10.0 mi WNW 4.6 mph - N/A   Clear
6:15 AM 34.7 °F 31.8 °F 30.0 °F 83% 30.18 in 10.0 mi WNW 3.5 mph - N/A   Clear
6:35 AM 34.5 °F 29.4 °F 29.8 °F 83% 30.18 in 10.0 mi West 5.8 mph - N/A   Clear
6:55 AM 34.0 °F 28.8 °F 29.8 °F 85% 30.18 in 10.0 mi West 5.8 mph - N/A   Clear
7:15 AM 34.7 °F 31.8 °F 30.0 °F 83% 30.18 in 10.0 mi West 3.5 mph - N/A   Clear
7:35 AM 34.9 °F 32.0 °F 30.2 °F 83% 30.19 in 10.0 mi WNW 3.5 mph - N/A   Clear
7:55 AM 34.9 °F 32.0 °F 30.2 °F 83% 30.19 in 10.0 mi WNW 3.5 mph - N/A   Clear
8:15 AM 36.5 °F 32.7 °F 31.6 °F 83% 30.20 in 10.0 mi WNW 4.6 mph - N/A   Clear
8:35 AM 38.5 °F 35.0 °F 32.2 °F 78% 30.19 in 10.0 mi West 4.6 mph - N/A   Clear
8:55 AM 40.6 °F 37.5 °F 32.9 °F 74% 30.19 in 10.0 mi West 4.6 mph - N/A   Clear
9:15 AM 42.8 °F 41.1 °F 33.4 °F 70% 30.20 in 10.0 mi West 3.5 mph - N/A   Clear
9:35 AM 44.6 °F 43.1 °F 33.8 °F 66% 30.19 in 10.0 mi West 3.5 mph - N/A   Clear
9:55 AM 46.4 °F - 33.4 °F 61% 30.19 in 10.0 mi Calm Calm - N/A   Clear
10:15 AM 48.7 °F - 33.1 °F 55% 30.19 in 10.0 mi West 4.6 mph - N/A   Clear
10:35 AM 50.4 °F - 34.0 °F 53% 30.18 in 10.0 mi West 5.8 mph - N/A   Clear
10:55 AM - - - N/A% - - North - - N/A   Unknown
11:15 AM 54.5 °F - 33.8 °F 46% 30.17 in - West 4.6 mph - N/A   Clear
11:35 AM 56.3 °F - 33.1 °F 41% 30.16 in 10.0 mi WNW 6.9 mph - N/A   Clear
11:55 AM 56.8 °F - 33.6 °F 42% 30.15 in 10.0 mi WSW 5.8 mph - N/A   Clear
12:15 PM 58.3 °F - 33.4 °F 39% 30.12 in 10.0 mi WSW 5.8 mph - N/A   Clear
12:35 PM 60.4 °F - 33.1 °F 36% 30.11 in 10.0 mi WSW 5.8 mph - N/A   Clear
12:55 PM 62.1 °F - 31.8 °F 32% 30.09 in 10.0 mi West 9.2 mph - N/A   Clear
1:15 PM 62.8 °F - 32.2 °F 32% 30.09 in 10.0 mi West 8.1 mph - N/A   Clear
1:35 PM 64.0 °F - 32.9 °F 31% 30.07 in 10.0 mi WSW 9.2 mph - N/A   Clear
1:55 PM 64.2 °F - 32.4 °F 30% 30.06 in 10.0 mi WSW 10.4 mph - N/A   Clear
2:15 PM 65.5 °F - 32.9 °F 30% 30.05 in 10.0 mi West 10.4 mph - N/A   Clear
2:35 PM 66.0 °F - 33.1 °F 29% 30.04 in 10.0 mi WSW 9.2 mph - N/A   Clear
2:55 PM 67.1 °F - 33.8 °F 29% 30.04 in 10.0 mi SW 10.4 mph - N/A   Clear
3:15 PM 67.6 °F - 34.0 °F 29% 30.03 in 10.0 mi West 11.5 mph - N/A   Clear
3:35 PM 68.4 °F - 34.0 °F 28% 30.03 in 10.0 mi West 10.4 mph - N/A   Clear
3:55 PM 68.9 °F - 34.2 °F 28% 30.03 in 10.0 mi West 8.1 mph - N/A   Clear
4:15 PM 69.3 °F - 34.0 °F 27% 30.03 in 10.0 mi West 5.8 mph - N/A   Clear
4:35 PM 69.1 °F - 34.7 °F 28% 30.03 in 10.0 mi WSW 6.9 mph - N/A   Clear
4:55 PM 68.4 °F - 35.1 °F 29% 30.03 in 10.0 mi WSW 9.2 mph - N/A   Clear
5:15 PM 67.1 °F - 36.0 °F 32% 30.03 in 10.0 mi WSW 8.1 mph - N/A   Clear
5:35 PM 65.1 °F - 36.5 °F 35% 30.02 in 10.0 mi SW 5.8 mph - N/A   Clear
5:55 PM 63.1 °F - 36.1 °F 37% 30.03 in 10.0 mi WSW 5.8 mph - N/A   Clear
6:15 PM 62.6 °F - 35.8 °F 37% 30.03 in 10.0 mi WSW 5.8 mph - N/A   Clear
6:35 PM 62.1 °F - 36.1 °F 38% 30.03 in 10.0 mi WSW 5.8 mph - N/A   Clear
6:55 PM 59.9 °F - 36.5 °F 42% 30.03 in 10.0 mi SW 6.9 mph - N/A   Clear
7:15 PM 59.5 °F - 37.0 °F 43% 30.03 in 10.0 mi SW 6.9 mph - N/A   Clear
7:35 PM 60.3 °F - 37.4 °F 43% 30.02 in 10.0 mi WSW 8.1 mph - N/A   Clear
7:55 PM 59.5 °F - 37.4 °F 44% 30.03 in 10.0 mi WSW 6.9 mph - N/A   Clear
8:15 PM 59.0 °F - 37.4 °F 45% 30.03 in 10.0 mi WSW 5.8 mph - N/A   Clear
8:35 PM 58.8 °F - 37.0 °F 44% 30.03 in 10.0 mi North - - N/A   Clear
8:55 PM 58.6 °F - 37.6 °F 46% 30.03 in 10.0 mi West 4.6 mph - N/A   Clear
9:15 PM 58.3 °F - 37.9 °F 47% 30.04 in 10.0 mi West 4.6 mph - N/A   Clear
9:35 PM 57.2 °F - 38.3 °F 49% 30.04 in 10.0 mi West 5.8 mph - N/A   Clear
9:55 PM 56.3 °F - 38.3 °F 51% 30.04 in 10.0 mi West 5.8 mph - N/A   Clear
10:15 PM 55.9 °F - 38.3 °F 52% 30.04 in 10.0 mi WNW 4.6 mph - N/A   Clear
10:35 PM 55.0 °F - 38.3 °F 53% 30.04 in 10.0 mi West 4.6 mph - N/A   Clear
10:55 PM 55.8 °F - 38.3 °F 52% 30.04 in 10.0 mi WNW 5.8 mph - N/A   Clear
11:15 PM 56.1 °F - 37.8 °F 50% 30.04 in 10.0 mi West 5.8 mph - N/A   Clear
11:35 PM 55.9 °F - 37.4 °F 50% 30.04 in 10.0 mi WNW 4.6 mph - N/A   Clear
11:55 PM 54.5 °F - 37.4 °F 52% 30.04 in 10.0 mi West 3.5 mph - N/A   Clear